STARLINK-2446, 47844

Orbit data source: Space-Track

STARLINK-2446, 47844 is a payload satellite owned by SpaceX/Seattle (US) in LEO that was launched on Thu, 11 Mar 2021 UTC via an FALCON 9 launch vehicle from the Air Force Eastern Test Range (AFETR). Payload-class satellites include a variety of spacecraft equipped with specific instruments for various scientific and technological missions. These include communications satellites like Starlink; space stations such as the ISS; scientific satellites like the Hubble; Earth observation satellites from companies like Planet Labs, Umbra, and HawkEye 360; GPS; miniature CubeSats for education and research; and military/defense satellites.

Loading next visibility...
Identifier
47844, 2021-018BK
Orbit
LEO
Country
Flag of USUS
Related business
Manufacturer
SpaceX/Seattle
Mission
Operational Commercial Communications
Bus & Motor
STARLINK, Unknown motor
Mass
260 kg wet, ~248 kg dry
Launch date (UTC)
2021-03-11 (5 years ago)
Launch vehicle
FALCON 9
Launch site
Air Force Eastern Test Range (AFETR)
Object type
Payload
Rocket body
Debris
Shape & HBR
Box + 1 Pan, 10.1 m
Radar Cross Section
13.562 m², Large (>1 m²)

Expand to show TLE details & history
Last TLE update: 11 hours ago

TLE from 11 hours ago
0 STARLINK-2446
1 47844U 21018BK  26035.44243368  .00008811  00000-0  42537-3 0  9991
2 47844  53.1095  40.0727 0001789  87.3867 272.7333 15.19416810271593
Epoch: 2026-02-04T10:37Z
TLE epoch observation values (Epoch: 2026-02-04T10:37:06.269Z)
Latitude
-0.00006°
Longitude
106.18758°
Altitude
508.434 km
Speed
7.611 km/s
True Right ascension
02h 40m 17s
True Declination
0° 00' 00"
Sunlit
Object was in daylight at epoch
Visualization orbit readout
Latitude
Unknown
Longitude
Unknown
Altitude
Unknown
Speed
Unknown
Apparent Right ascension
Unknown
Apparent Declination
Unknown
Sunlit
N/A
Visualization observer readout
Local Sidereal Time
23:26:35
Azimuth
Unknown
Elevation
Unknown
Doppler factor
Unknown
Orbital elements
Apogee altitude
509.097 km
Perigee altitude
506.633 km
Semi-major axis
6,886.002 km
Eccentricity
0.00018
Inclination
53.1095°
RAAN
40.0727°
Arg. of periapsis
87.3867°
True anomaly
272.71282°
Mean anomaly
272.7333°
Eccentric anomaly
272.72306°
Mean motion
3.79833 °/min
Orbital period
94.78 mins
BSTAR
0.00042537
Loading maneuver chart data...
Computing Atmospheric mass density...
Loading historical data...
Loading historical data...
Loading historical data...
Loading historical data...
Loading historical data...
Loading historical data...
Loading historical data...

Documentation

Showing up to 5 results
|